Purki — 9HA2386 — position and weather

sailwx.info

Track history (hours):
 
Tides and Currents Weather Stations Pressure Air Temp Water Temp Dewpoint Dewpoint Depression Visibility Wind Speed Wind Dir Waves Ship Positions

Purki

Last reported at 2014-Aug-27 00:14 UTC. Time now 2014-Aug-28 01:23 UTC.
Position N 40°57' E 028°39'.

Length 147 m; draft 7 m.

Type: Ship. MMSI: 248495000.

Date/timePositionNaut miles runAvg speedWind from/ knotsBaromVisibWave heightAir tempDewpointWater temp
2014-Aug-27 00:14N 40°57' E 028°39'0 0.0
2014-Aug-26 22:08N 40°57' E 028°39'0 0.0
2014-Aug-26 09:14N 40°57' E 028°39'0 0.0
2014-Aug-26 06:10N 40°57' E 028°39'0 0.0
2014-Aug-26 05:21N 40°57' E 028°39'1 0.6
2014-Aug-26 04:33N 40°57' E 028°39'206 7.9
2014-Aug-25 02:28N 38°00' E 026°21'1312.5
2014-Aug-25 01:28N 37°49' E 026°28'1612.8
2014-Aug-25 00:12N 37°35' E 026°38'912.4
2014-Aug-24 23:30N 37°28' E 026°44'1212.6
2014-Aug-24 22:34N 37°18' E 026°52'1312.7
2014-Aug-24 21:33N 37°07' E 027°01'3110.0
2014-Aug-24 18:27N 36°40' E 027°20'  
Track history (hours):
 
Tides and Currents Weather Stations Pressure Air Temp Water Temp Dewpoint Dewpoint Depression Visibility Wind Speed Wind Dir Waves Ship Positions

Purki

Last reported at 2014-Aug-27 00:14 UTC. Time now 2014-Aug-28 01:23 UTC.
Position N 40°57' E 028°39'.

Length 147 m; draft 7 m.

Type: Ship. MMSI: 248495000.

Date/timePositionNaut miles runAvg speedWind from/ knotsBaromVisibWave heightAir tempDewpointWater temp
2014-Aug-27 00:14N 40°57' E 028°39'0 0.0
2014-Aug-26 22:08N 40°57' E 028°39'0 0.0
2014-Aug-26 09:14N 40°57' E 028°39'0 0.0
2014-Aug-26 06:10N 40°57' E 028°39'0 0.0
2014-Aug-26 05:21N 40°57' E 028°39'1 0.6
2014-Aug-26 04:33N 40°57' E 028°39'206 7.9
2014-Aug-25 02:28N 38°00' E 026°21'1312.5
2014-Aug-25 01:28N 37°49' E 026°28'1612.8
2014-Aug-25 00:12N 37°35' E 026°38'912.4
2014-Aug-24 23:30N 37°28' E 026°44'1212.6
2014-Aug-24 22:34N 37°18' E 026°52'1312.7
2014-Aug-24 21:33N 37°07' E 027°01'3110.0
2014-Aug-24 18:27N 36°40' E 027°20'  

Dump ship's entire track history